QPF
0.01 0.01 0.01 0.01 0.02 0.02 0.03 0.04 0.05 0.05 0.04 0.03 0.04 0.05 0.06 0.06 0.08 0.07 0.10 0.13 0.14 0.16 0.17 0.17 0.17 0.17 0.14 0.13 0.12 0.10 0.10 0.11 0.11 0.09 0.07 0.05 0.04 0.02
0.01 0.01 0.01 0.01 0.01 0.02 0.02 0.03 0.04 0.05 0.06 0.05 0.05 0.06 0.05 0.04 0.07 0.06 0.07 0.10 0.11 0.13 0.13 0.13 0.13 0.13 0.12 0.11 0.11 0.09 0.08 0.08 0.07 0.06 0.04 0.04 0.03 0.02
0.01 0.01 0.01 0.02 0.02 0.02 0.02 0.03 0.03 0.04 0.06 0.07 0.07 0.07 0.06 0.05 0.06 0.05 0.06 0.07 0.09 0.09 0.08 0.07 0.07 0.07 0.07 0.07 0.06 0.06 0.06 0.06 0.05 0.05 0.04 0.03 0.02 0.01
0.02 0.02 0.02 0.02 0.03 0.02 0.02 0.02 0.03 0.04 0.05 0.07 0.08 0.07 0.07 0.06 0.06 0.05 0.05 0.05 0.05 0.05 0.04 0.04 0.04 0.04 0.04 0.04 0.04 0.03 0.03 0.03 0.03 0.02 0.02 0.02 0.01 0.01
0.03 0.02 0.02 0.03 0.03 0.02 0.03 0.03 0.03 0.04 0.05 0.06 0.07 0.07 0.06 0.06 0.05 0.04 0.03 0.03 0.02 0.03 0.02 0.02 0.02 0.01 0.01 0.01 0.01 0.01 0.01 0.01 0.01 0.00 0.00 0.00 0.00 0.00
0.03 0.03 0.03 0.03 0.02 0.02 0.03 0.03 0.03 0.04 0.04 0.05 0.05 0.05 0.04 0.04 0.03 0.02 0.02 0.02 0.01 0.01 0.01 0.01 0.01 0.00 0.00 0.00 0.00 0.00 0.00 0.00 0.00 0.00 0.00 0.00 0.00 0.00
0.03 0.03 0.03 0.03 0.02 0.02 0.02 0.02 0.03 0.04 0.03 0.03 0.03 0.03 0.03 0.03 0.02 0.01 0.01 0.01 0.01 0.00 0.00 0.01 0.01 0.01 0.01 0.00 0.00 0.00 0.00 0.00 0.00 0.00 0.00 0.00 0.00 0.00
0.02 0.02 0.02 0.03 0.02 0.01 0.01 0.01 0.02 0.03 0.04 0.04 0.04 0.03 0.03 0.02 0.02 0.01 0.01 0.02 0.02 0.01 0.01 0.01 0.01 0.01 0.01 0.00 0.00 0.00 0.00 0.00 0.00 0.00 0.00 0.00 0.00 0.00
0.01 0.01 0.01 0.02 0.02 0.01 0.01 0.01 0.01 0.02 0.03 0.04 0.05 0.04 0.04 0.03 0.02 0.02 0.02 0.02 0.03 0.01 0.01 0.02 0.01 0.01 0.00 0.00 0.00 0.00 0.00 0.00 0.00 0.00 0.00 0.00 0.00 0.00
0.01 0.02 0.02 0.02 0.02 0.01 0.01 0.01 0.01 0.01 0.02 0.03 0.04 0.03 0.02 0.01 0.01 0.02 0.02 0.02 0.02 0.01 0.01 0.04 0.03 0.01 0.00 0.00 0.00 0.00 0.00 0.00 0.00 0.00 0.00 0.00 0.00 0.00
0.02 0.02 0.02 0.02 0.02 0.01 0.02 0.02 0.02 0.02 0.02 0.02 0.03 0.02 0.01 0.00 0.01 0.02 0.02 0.02 0.03 0.02 0.01 0.02 0.02 0.01 0.01 0.01 0.00 0.00 0.00 0.00 0.00 0.00 0.00 0.00 0.00 0.00
0.03 0.03 0.02 0.02 0.01 0.01 0.03 0.03 0.03 0.03 0.02 0.01 0.02 0.02 0.01 0.00 0.00 0.02 0.02 0.02 0.02 0.03 0.01 0.01 0.01 0.01 0.02 0.01 0.00 0.00 0.00 0.00 0.00 0.00 0.00 0.00 0.00 0.00
0.02 0.02 0.02 0.02 0.01 0.01 0.02 0.02 0.02 0.03 0.03 0.02 0.02 0.02 0.01 0.01 0.01 0.01 0.01 0.01 0.02 0.02 0.01 0.01 0.01 0.01 0.02 0.01 0.00 0.00 0.00 0.01 0.00 0.00 0.00 0.00 0.00 0.00
0.01 0.01 0.01 0.01 0.01 0.01 0.01 0.01 0.01 0.02 0.02 0.02 0.01 0.01 0.01 0.01 0.01 0.01 0.01 0.00 0.01 0.01 0.01 0.00 0.01 0.01 0.01 0.01 0.01 0.00 0.00 0.00 0.00 0.00 0.00 0.00 0.00 0.00
0.00 0.00 0.00 0.01 0.01 0.01 0.01 0.01 0.01 0.01 0.02 0.01 0.01 0.01 0.01 0.00 0.00 0.00 0.00 0.00 0.00 0.00 0.00 0.00 0.00 0.01 0.01 0.00 0.00 0.00 0.00 0.00 0.00 0.00 0.00 0.01 0.01 0.01
0.00 0.00 0.00 0.00 0.00 0.00 0.00 0.00 0.00 0.00 0.00 0.01 0.01 0.00 0.00 0.00 0.00 0.00 0.00 0.00 0.00 0.00 0.00 0.00 0.00 0.01 0.01 0.00 0.00 0.00 0.00 0.00 0.00 0.00 0.00 0.00 0.01 0.01
0.00 0.00 0.00 0.00 0.00 0.00 0.00 0.00 0.00 0.00 0.00 0.00 0.00 0.00 0.00 0.00 0.00 0.00 0.00 0.00 0.00 0.00 0.00 0.00 0.00 0.00 0.00 0.00 0.00 0.00 0.00 0.00 0.00 0.01 0.01 0.01 0.01 0.01
0.00 0.00 0.00 0.00 0.00 0.00 0.00 0.00 0.00 0.00 0.00 0.00 0.00 0.00 0.00 0.00 0.00 0.00 0.00 0.00 0.00 0.00 0.00 0.00 0.00 0.00 0.00 0.00 0.00 0.00 0.00 0.00 0.00 0.00 0.00 0.01 0.01 0.01
0.00 0.00 0.00 0.00 0.00 0.00 0.00 0.00 0.00 0.00 0.00 0.00 0.00 0.00 0.00 0.00 0.00 0.00 0.00 0.00 0.00 0.00 0.00 0.00 0.00 0.00 0.00 0.00 0.00 0.00 0.00 0.00 0.00 0.00 0.00 0.00 0.00 0.00
0.00 0.00 0.00 0.00 0.00 0.00 0.00 0.00 0.00 0.00 0.00 0.00 0.00 0.00 0.00 0.00 0.00 0.00 0.00 0.00 0.00 0.00 0.00 0.00 0.00 0.00 0.00 0.00 0.00 0.00 0.00 0.00 0.00 0.01 0.00 0.00 0.00 0.00
0.00 0.00 0.00 0.00 0.00 0.00 0.00 0.00 0.00 0.00 0.00 0.00 0.00 0.00 0.00 0.00 0.00 0.00 0.00 0.00 0.00 0.00 0.00 0.00 0.00 0.00 0.00 0.00 0.00 0.00 0.00 0.00 0.00 0.00 0.00 0.00 0.00 0.00
0.00 0.00 0.00 0.00 0.00 0.00 0.00 0.00 0.00 0.00 0.00 0.00 0.00 0.00 0.00 0.00 0.00 0.00 0.00 0.00 0.00 0.00 0.00 0.00 0.00 0.00 0.00 0.00 0.00 0.00 0.00 0.00 0.00 0.00 0.00 0.00 0.00 0.01
0.00 0.00 0.00 0.00 0.00 0.00 0.00 0.00 0.00 0.00 0.00 0.00 0.00 0.00 0.00 0.00 0.00 0.00 0.00 0.00 0.00 0.00 0.00 0.00 0.00 0.00 0.00 0.00 0.00 0.00 0.00 0.00 0.00 0.00 0.00 0.00 0.00 0.01
MSLP
1019.43 1019.27 1019.13 1019.02 1018.96 1018.95 1019.02 1019.16 1019.38 1019.64 1019.93 1020.19 1020.38 1020.46 1020.40 1020.19 1019.85 1019.42 1018.96 1018.54 1018.25 1018.14 1018.26 1018.62 1019.22 1020.01 1020.93 1021.91 1022.88 1023.77 1024.55 1025.18 1025.68 1026.04 1026.31 1026.51 1026.66 1026.79
1019.17 1018.99 1018.82 1018.69 1018.60 1018.59 1018.67 1018.85 1019.12 1019.48 1019.88 1020.28 1020.63 1020.89 1021.01 1020.98 1020.81 1020.54 1020.21 1019.89 1019.66 1019.59 1019.72 1020.06 1020.61 1021.33 1022.16 1023.04 1023.90 1024.67 1025.32 1025.82 1026.19 1026.43 1026.58 1026.67 1026.73 1026.77
1018.91 1018.71 1018.53 1018.39 1018.30 1018.30 1018.41 1018.63 1018.97 1019.41 1019.91 1020.45 1020.95 1021.37 1021.67 1021.82 1021.83 1021.72 1021.53 1021.33 1021.18 1021.16 1021.29 1021.60 1022.08 1022.71 1023.43 1024.18 1024.90 1025.53 1026.05 1026.42 1026.66 1026.79 1026.83 1026.81 1026.78 1026.73
1018.75 1018.53 1018.35 1018.21 1018.14 1018.16 1018.30 1018.57 1018.96 1019.47 1020.06 1020.69 1021.31 1021.86 1022.30 1022.61 1022.77 1022.80 1022.75 1022.65 1022.58 1022.59 1022.72 1023.00 1023.41 1023.93 1024.53 1025.14 1025.72 1026.21 1026.60 1026.85 1026.99 1027.02 1026.98 1026.89 1026.78 1026.67
1018.73 1018.51 1018.33 1018.20 1018.15 1018.21 1018.38 1018.69 1019.12 1019.67 1020.30 1020.99 1021.67 1022.29 1022.82 1023.23 1023.50 1023.64 1023.69 1023.68 1023.67 1023.71 1023.83 1024.05 1024.38 1024.80 1025.27 1025.75 1026.20 1026.58 1026.85 1027.02 1027.09 1027.06 1026.97 1026.84 1026.69 1026.55
1018.89 1018.66 1018.49 1018.38 1018.36 1018.44 1018.64 1018.96 1019.40 1019.95 1020.59 1021.26 1021.95 1022.59 1023.15 1023.60 1023.92 1024.13 1024.25 1024.29 1024.32 1024.37 1024.47 1024.64 1024.89 1025.21 1025.57 1025.93 1026.27 1026.56 1026.76 1026.87 1026.90 1026.86 1026.76 1026.62 1026.47 1026.32
1019.22 1018.99 1018.82 1018.73 1018.73 1018.82 1019.03 1019.34 1019.75 1020.26 1020.84 1021.47 1022.10 1022.70 1023.23 1023.67 1024.01 1024.24 1024.38 1024.46 1024.51 1024.55 1024.63 1024.75 1024.93 1025.16 1025.41 1025.68 1025.94 1026.15 1026.31 1026.40 1026.43 1026.40 1026.33 1026.22 1026.09 1025.96
1019.68 1019.44 1019.28 1019.20 1019.20 1019.29 1019.48 1019.75 1020.11 1020.54 1021.03 1021.56 1022.10 1022.61 1023.08 1023.47 1023.78 1024.01 1024.16 1024.25 1024.29 1024.33 1024.38 1024.46 1024.57 1024.72 1024.89 1025.09 1025.27 1025.44 1025.58 1025.67 1025.72 1025.73 1025.69 1025.63 1025.54 1025.43
1020.21 1019.98 1019.82 1019.74 1019.73 1019.80 1019.94 1020.15 1020.43 1020.76 1021.14 1021.55 1021.97 1022.38 1022.76 1023.09 1023.35 1023.56 1023.69 1023.78 1023.83 1023.85 1023.88 1023.91 1023.97 1024.05 1024.16 1024.29 1024.42 1024.56 1024.68 1024.78 1024.86 1024.90 1024.91 1024.89 1024.84 1024.76
1020.77 1020.55 1020.40 1020.31 1020.28 1020.31 1020.39 1020.52 1020.70 1020.93 1021.19 1021.47 1021.78 1022.08 1022.37 1022.63 1022.85 1023.03 1023.16 1023.24 1023.28 1023.30 1023.30 1023.30 1023.31 1023.34 1023.39 1023.46 1023.55 1023.65 1023.76 1023.86 1023.95 1024.01 1024.05 1024.05 1024.02 1023.95
1021.33 1021.13 1020.98 1020.88 1020.82 1020.80 1020.81 1020.86 1020.95 1021.07 1021.22 1021.40 1021.60 1021.82 1022.04 1022.24 1022.43 1022.58 1022.70 1022.78 1022.82 1022.83 1022.81 1022.78 1022.75 1022.73 1022.73 1022.75 1022.79 1022.85 1022.93 1023.01 1023.09 1023.15 1023.19 1023.19 1023.15 1023.07
1021.87 1021.70 1021.55 1021.42 1021.33 1021.26 1021.21 1021.19 1021.20 1021.23 1021.30 1021.40 1021.52 1021.67 1021.84 1022.01 1022.17 1022.31 1022.43 1022.50 1022.54 1022.54 1022.50 1022.45 1022.39 1022.32 1022.27 1022.24 1022.23 1022.24 1022.27 1022.31 1022.35 1022.38 1022.38 1022.35 1022.27 1022.14
1022.39 1022.23 1022.08 1021.94 1021.81 1021.69 1021.59 1021.51 1021.46 1021.43 1021.44 1021.49 1021.57 1021.68 1021.82 1021.97 1022.12 1022.25 1022.35 1022.42 1022.45 1022.44 1022.39 1022.31 1022.22 1022.11 1022.02 1021.93 1021.87 1021.83 1021.80 1021.78 1021.76 1021.73 1021.66 1021.56 1021.41 1021.23
1022.85 1022.70 1022.54 1022.38 1022.23 1022.08 1021.94 1021.82 1021.73 1021.68 1021.66 1021.68 1021.74 1021.84 1021.96 1022.09 1022.23 1022.35 1022.44 1022.50 1022.51 1022.48 1022.41 1022.31 1022.19 1022.05 1021.92 1021.79 1021.68 1021.58 1021.48 1021.39 1021.29 1021.17 1021.02 1020.84 1020.61 1020.33
1023.22 1023.07 1022.91 1022.73 1022.55 1022.38 1022.23 1022.09 1021.99 1021.93 1021.91 1021.93 1021.99 1022.08 1022.19 1022.31 1022.43 1022.53 1022.59 1022.63 1022.62 1022.56 1022.47 1022.35 1022.21 1022.05 1021.89 1021.72 1021.56 1021.41 1021.25 1021.08 1020.89 1020.68 1020.44 1020.15 1019.83 1019.48
1023.47 1023.31 1023.13 1022.94 1022.75 1022.57 1022.41 1022.29 1022.20 1022.15 1022.15 1022.18 1022.25 1022.33 1022.43 1022.53 1022.62 1022.68 1022.72 1022.71 1022.67 1022.59 1022.48 1022.34 1022.18 1022.01 1021.83 1021.64 1021.44 1021.24 1021.02 1020.78 1020.51 1020.20 1019.86 1019.48 1019.07 1018.64
1023.55 1023.37 1023.18 1022.98 1022.79 1022.62 1022.48 1022.38 1022.32 1022.30 1022.32 1022.37 1022.44 1022.53 1022.61 1022.68 1022.73 1022.75 1022.73 1022.69 1022.60 1022.49 1022.36 1022.21 1022.04 1021.86 1021.68 1021.47 1021.25 1021.01 1020.73 1020.42 1020.07 1019.68 1019.25 1018.78 1018.30 1017.80
1023.45 1023.25 1023.04 1022.85 1022.67 1022.52 1022.41 1022.35 1022.33 1022.35 1022.40 1022.47 1022.55 1022.62 1022.68 1022.71 1022.71 1022.67 1022.61 1022.51 1022.39 1022.25 1022.10 1021.94 1021.78 1021.60 1021.41 1021.19 1020.95 1020.67 1020.34 1019.97 1019.54 1019.07 1018.56 1018.03 1017.48 1016.93
1023.17 1022.96 1022.76 1022.57 1022.42 1022.31 1022.25 1022.24 1022.26 1022.32 1022.39 1022.48 1022.55 1022.61 1022.63 1022.61 1022.57 1022.48 1022.36 1022.22 1022.07 1021.91 1021.75 1021.59 1021.42 1021.24 1021.04 1020.81 1020.54 1020.22 1019.84 1019.40 1018.91 1018.37 1017.79 1017.19 1016.59 1016.00
1022.77 1022.56 1022.37 1022.22 1022.11 1022.05 1022.04 1022.08 1022.15 1022.24 1022.34 1022.42 1022.49 1022.52 1022.50 1022.45 1022.35 1022.21 1022.05 1021.88 1021.71 1021.53 1021.36 1021.19 1021.02 1020.83 1020.62 1020.36 1020.05 1019.68 1019.24 1018.73 1018.17 1017.56 1016.92 1016.27 1015.63 1015.03
1022.29 1022.11 1021.96 1021.86 1021.80 1021.80 1021.85 1021.93 1022.04 1022.16 1022.27 1022.35 1022.39 1022.39 1022.34 1022.24 1022.10 1021.93 1021.74 1021.55 1021.35 1021.17 1020.99 1020.81 1020.63 1020.41 1020.17 1019.87 1019.50 1019.06 1018.55 1017.98 1017.34 1016.67 1015.98 1015.29 1014.62 1014.00
1021.82 1021.68 1021.59 1021.55 1021.56 1021.61 1021.71 1021.84 1021.98 1022.11 1022.21 1022.28 1022.30 1022.27 1022.18 1022.04 1021.87 1021.67 1021.46 1021.26 1021.05 1020.86 1020.67 1020.47 1020.26 1020.01 1019.71 1019.34 1018.90 1018.39 1017.80 1017.14 1016.44 1015.71 1014.98 1014.27 1013.59 1012.97
1021.38 1021.31 1021.29 1021.31 1021.39 1021.51 1021.65 1021.81 1021.96 1022.09 1022.19 1022.23 1022.22 1022.15 1022.02 1021.86 1021.66 1021.45 1021.23 1021.02 1020.81 1020.60 1020.39 1020.17 1019.91 1019.60 1019.23 1018.78 1018.25 1017.65 1016.97 1016.25 1015.49 1014.72 1013.96 1013.24 1012.57 1011.96
Thickness
5620 5622 5624 5625 5626 5627 5626 5625 5623 5619 5612 5607 5606 5605 5607 5607 5607 5609 5608 5607 5607 5606 5604 5603 5601 5600 5598 5596 5593 5592 5589 5587 5584 5582 5579 5576 5573 5571
5610 5611 5614 5616 5617 5618 5618 5618 5618 5617 5609 5601 5599 5597 5597 5599 5597 5598 5597 5596 5596 5595 5593 5591 5590 5588 5586 5584 5582 5580 5578 5576 5574 5572 5569 5567 5565 5562
5601 5603 5604 5605 5608 5609 5610 5611 5610 5610 5603 5594 5591 5589 5589 5589 5589 5589 5589 5588 5586 5585 5583 5581 5580 5578 5577 5575 5573 5571 5569 5567 5566 5563 5561 5559 5556 5554
5591 5593 5594 5596 5597 5599 5601 5602 5601 5600 5597 5589 5584 5583 5582 5581 5581 5581 5581 5581 5579 5576 5574 5572 5571 5570 5569 5567 5566 5564 5562 5560 5558 5556 5554 5552 5549 5547
5582 5583 5585 5586 5587 5589 5591 5592 5592 5591 5588 5585 5580 5577 5576 5575 5575 5575 5574 5573 5573 5569 5567 5566 5564 5563 5562 5561 5560 5558 5556 5555 5553 5551 5549 5547 5544 5542
5572 5573 5575 5576 5578 5580 5582 5583 5583 5582 5580 5578 5575 5573 5572 5570 5570 5570 5569 5568 5569 5567 5563 5562 5560 5558 5557 5556 5555 5554 5552 5550 5548 5546 5545 5543 5541 5539
5564 5564 5564 5565 5566 5570 5574 5575 5576 5577 5576 5574 5572 5570 5568 5566 5566 5566 5566 5565 5563 5563 5562 5562 5560 5558 5556 5554 5552 5551 5549 5547 5546 5544 5542 5540 5538 5536
5557 5557 5558 5558 5558 5560 5562 5564 5566 5568 5569 5569 5568 5565 5562 5563 5562 5563 5562 5562 5561 5561 5561 5561 5561 5559 5557 5556 5552 5549 5547 5545 5544 5542 5540 5539 5537 5534
5550 5552 5554 5552 5554 5555 5554 5555 5557 5557 5559 5562 5562 5560 5558 5557 5557 5558 5557 5559 5558 5559 5558 5559 5559 5558 5556 5555 5550 5548 5546 5544 5542 5541 5539 5537 5535 5533
5543 5545 5546 5546 5547 5549 5551 5552 5552 5552 5553 5555 5554 5553 5553 5552 5553 5554 5554 5554 5555 5555 5555 5555 5557 5557 5557 5553 5550 5547 5545 5544 5542 5541 5539 5537 5535 5533
5538 5537 5540 5540 5538 5540 5546 5547 5547 5547 5546 5546 5546 5545 5545 5546 5547 5551 5553 5555 5555 5555 5554 5554 5555 5555 5555 5555 5551 5548 5546 5545 5543 5541 5539 5538 5536 5534
5534 5533 5530 5532 5533 5536 5541 5543 5543 5543 5544 5544 5542 5543 5544 5545 5545 5547 5551 5553 5553 5553 5553 5552 5554 5555 5554 5556 5554 5551 5549 5547 5545 5544 5542 5540 5537 5534
5534 5533 5529 5527 5529 5531 5534 5537 5537 5539 5542 5544 5545 5546 5546 5546 5547 5547 5548 5550 5551 5551 5552 5551 5552 5553 5553 5554 5555 5554 5553 5551 5549 5547 5545 5543 5540 5536
5531 5531 5528 5526 5527 5529 5531 5532 5534 5536 5543 5545 5546 5547 5548 5548 5548 5547 5546 5546 5546 5547 5547 5547 5550 5549 5551 5552 5554 5555 5554 5552 5551 5550 5549 5546 5543 5540
5527 5524 5524 5526 5527 5530 5530 5532 5535 5540 5543 5544 5545 5547 5548 5547 5546 5546 5546 5546 5546 5548 5548 5546 5548 5549 5549 5551 5552 5553 5553 5553 5552 5551 5549 5547 5546 5544
5528 5527 5526 5528 5530 5530 5533 5537 5540 5542 5543 5544 5546 5547 5548 5548 5549 5551 5551 5551 5552 5552 5551 5549 5548 5547 5549 5550 5551 5552 5553 5553 5553 5551 5550 5548 5547 5545
5529 5534 5537 5539 5540 5541 5542 5543 5544 5545 5545 5546 5547 5549 5550 5551 5552 5552 5551 5553 5553 5554 5555 5554 5553 5551 5551 5550 5551 5553 5553 5553 5553 5551 5548 5548 5548 5547
5530 5538 5541 5543 5544 5546 5547 5548 5548 5549 5549 5550 5550 5551 5552 5553 5554 5555 5555 5555 5555 5556 5557 5557 5557 5556 5556 5558 5553 5554 5554 5554 5553 5552 5549 5549 5549 5548
5536 5543 5546 5547 5548 5550 5551 5552 5552 5552 5551 5552 5553 5554 5555 5556 5556 5557 5557 5558 5558 5558 5559 5559 5559 5557 5557 5559 5560 5555 5553 5553 5552 5551 5551 5549 5548 5548
5546 5549 5550 5551 5552 5553 5555 5555 5556 5555 5556 5556 5556 5557 5557 5558 5559 5559 5560 5559 5559 5560 5561 5562 5561 5560 5557 5556 5558 5559 5555 5553 5552 5551 5550 5549 5548 5547
5555 5556 5557 5557 5558 5558 5558 5559 5559 5559 5559 5559 5559 5559 5560 5561 5562 5562 5563 5560 5559 5561 5563 5564 5564 5559 5557 5557 5558 5561 5561 5557 5553 5550 5548 5547 5547 5546
5561 5561 5562 5562 5562 5563 5563 5564 5564 5563 5563 5563 5564 5564 5564 5564 5564 5564 5565 5566 5566 5567 5567 5568 5567 5564 5563 5561 5561 5563 5563 5561 5558 5553 5549 5546 5543 5542
5566 5566 5567 5568 5568 5568 5569 5570 5569 5569 5569 5569 5569 5568 5568 5568 5567 5568 5568 5569 5569 5570 5569 5569 5570 5568 5567 5566 5565 5565 5565 5563 5562 5560 5557 5552 5545 5541